Weather History for Versailles, OH

Change the Weather History Date:

Wednesday, August 21, 2013

  Actual Average (KDAY) Record (KDAY)
Temperature  
Mean Temperature 73 °F 72 °F  
Max Temperature 86 °F 83 °F 100 °F (1936)
Min Temperature 60 °F 62 °F 46 °F (1950)
Degree Days  
Heating Degree Days 0 0  
Month to date heating degree days 0  
Since 1 June heating degree days 22  
Since 1 July heating degree days 0  
Cooling Degree Days 8 8  
Month to date cooling degree days 174  
Year to date cooling degree days 713  
Since 1 June cooling degree days 643  
Growing Degree Days 23 (Base 50)    
Moisture  
Dew Point 66 °F    
Average Humidity 87    
Maximum Humidity 100    
Minimum Humidity 54    
Precipitation  
Precipitation 0.00 in 0.10 in 1.21 in (1906)
Month to date precipitation 2.01  
Year to date precipitation 27.33  
Snow  
Snow 0.00 in 0.00 in 0.00 in ()
Month to date snowfall 0.0  
Since 1 June snowfall 0.0  
Since 1 July snowfall 0.0  
Snow Depth -    
Sea Level Pressure  
Sea Level Pressure 30.14 in    
Wind  
Wind Speed 3 mph (SE)    
Max Wind Speed 13 mph    
Max Gust Speed -    
Visibility 8 miles    
Events Rain , Thunderstorm    
T = Trace of Precipitation, MM = Missing Value Source: NWS Daily Summary

Daily Weather History Graph

Daily Weather History Graph

Search for Another Location

Airport:

Trip Planner

Search our weather history database for the weather conditions in past years. The results will help you decide how hot, cold, wet, or windy it might be!

Date:

Astronomy

Aug. 21, 2013 Rise Set
Actual Time 6:55 AM EDT 8:26 PM EDT
Civil Twilight 6:26 AM EDT 8:54 PM EDT
Nautical Twilight 5:52 AM EDT 9:29 PM EDT
Astronomical Twilight 5:15 AM EDT 10:05 PM EDT
Moon 8:34 PM EDT 7:34 AM EDT
Length of Visible Light 14h 28m
Length of Day
13h 30m
Full, 100% of the Moon is Illuminated
Aug 21
Full
Aug 28
Last Quarter
Sep 5
New
Sep 12
First Quarter
Sep 19
Full

Hourly Weather History & Observations

Time (EDT) Temp. Heat Index Dew Point Humidity Pressure Visibility Wind Dir Wind Speed Gust Speed Precip Events Conditions
12:15 AM 64.4 °F - 62.6 °F 94% 30.15 in 10.0 mi Calm Calm - N/A   Clear
12:35 AM 64.4 °F - 62.6 °F 94% 30.16 in 10.0 mi Calm Calm - N/A   Clear
12:55 AM 62.6 °F - 62.6 °F 100% 30.16 in 10.0 mi SE 4.6 mph - N/A   Clear
1:15 AM 62.6 °F - 62.6 °F 100% 30.16 in 10.0 mi SSE 3.5 mph - N/A   Clear
1:35 AM 64.4 °F - 62.6 °F 94% 30.16 in 10.0 mi Calm Calm - N/A   Clear
1:55 AM 62.6 °F - 60.8 °F 94% 30.16 in 10.0 mi Calm Calm - N/A   Clear
2:15 AM 62.6 °F - 62.6 °F 100% 30.16 in 10.0 mi Calm Calm - N/A   Clear
2:35 AM 62.6 °F - 60.8 °F 94% 30.16 in 7.0 mi SE 4.6 mph - N/A   Clear
2:55 AM 62.6 °F - 60.8 °F 94% 30.16 in 7.0 mi Calm Calm - N/A   Clear
3:15 AM 62.6 °F - 60.8 °F 94% 30.15 in 7.0 mi ESE 3.5 mph - N/A   Clear
3:35 AM 60.8 °F - 60.8 °F 100% 30.15 in 7.0 mi Calm Calm - N/A   Clear
3:55 AM 60.8 °F - 60.8 °F 100% 30.15 in 7.0 mi SSE 4.6 mph - N/A   Clear
4:15 AM 60.8 °F - 60.8 °F 100% 30.15 in 5.0 mi SSE 3.5 mph - N/A   Clear
4:35 AM 62.6 °F - 62.6 °F 100% 30.15 in 5.0 mi Calm Calm - N/A   Clear
4:55 AM 62.6 °F - 62.6 °F 100% 30.14 in 5.0 mi Calm Calm - N/A   Scattered Clouds
5:15 AM 62.6 °F - 62.6 °F 100% 30.14 in 5.0 mi ESE 4.6 mph - N/A   Mostly Cloudy
5:35 AM 62.6 °F - 62.6 °F 100% 30.14 in 5.0 mi SE 4.6 mph - N/A   Overcast
5:55 AM 62.6 °F - 62.6 °F 100% 30.15 in 5.0 mi Calm Calm - N/A Thunderstorm Overcast
6:15 AM 62.6 °F - 62.6 °F 100% 30.15 in 5.0 mi SE 4.6 mph - N/A   Overcast
6:35 AM 64.4 °F - 62.6 °F 94% 30.15 in 5.0 mi SE 5.8 mph - N/A Rain Light Rain
6:55 AM 64.4 °F - 64.4 °F 100% 30.16 in 3.0 mi Calm Calm - N/A   Overcast
7:15 AM 64.4 °F - 64.4 °F 100% 30.17 in 2.5 mi Calm Calm - N/A   Overcast
7:35 AM 64.4 °F - 64.4 °F 100% 30.17 in 3.0 mi Calm Calm - N/A   Mostly Cloudy
7:55 AM 64.4 °F - 64.4 °F 100% 30.17 in 2.0 mi Calm Calm - N/A   Overcast
8:15 AM 64.4 °F - 64.4 °F 100% 30.18 in 2.5 mi Calm Calm - N/A   Overcast
8:35 AM 66.2 °F - 66.2 °F 100% 30.18 in 3.0 mi Calm Calm - N/A   Mostly Cloudy
8:55 AM 68.0 °F - 66.2 °F 94% 30.19 in 5.0 mi Calm Calm - N/A   Scattered Clouds
9:15 AM 69.8 °F - 66.2 °F 88% 30.19 in 7.0 mi SSE 4.6 mph - N/A Thunderstorm Clear
9:35 AM 71.6 °F - 68.0 °F 88% 30.18 in 7.0 mi South 5.8 mph - N/A   Scattered Clouds
9:55 AM 73.4 °F - 68.0 °F 83% 30.18 in 10.0 mi South 5.8 mph - N/A Thunderstorm Scattered Clouds
10:15 AM 73.4 °F - 68.0 °F 83% 30.18 in 7.0 mi South 4.6 mph - N/A Thunderstorm Clear
10:35 AM 75.2 °F - 68.0 °F 78% 30.19 in 10.0 mi South 3.5 mph - N/A Thunderstorm Thunderstorm
10:55 AM 77.0 °F - 69.8 °F 78% 30.18 in 10.0 mi South 4.6 mph - N/A   Scattered Clouds
11:15 AM 77.0 °F - 69.8 °F 78% 30.18 in 10.0 mi Calm Calm - N/A   Mostly Cloudy
11:35 AM 78.8 °F - 69.8 °F 74% 30.19 in 10.0 mi Calm Calm - N/A   Mostly Cloudy
11:55 AM 80.6 °F 83.9 °F 69.8 °F 70% 30.18 in 10.0 mi Calm Calm - N/A   Mostly Cloudy
12:15 PM 80.6 °F 83.9 °F 69.8 °F 70% 30.18 in 10.0 mi Calm Calm - N/A   Overcast
12:35 PM 82.4 °F 86.3 °F 69.8 °F 66% 30.17 in 10.0 mi SW 3.5 mph - N/A   Overcast
12:55 PM 82.4 °F 85.4 °F 68.0 °F 62% 30.16 in 10.0 mi Calm Calm - N/A   Mostly Cloudy
1:15 PM 80.6 °F 83.2 °F 68.0 °F 65% 30.15 in 10.0 mi Calm Calm - N/A   Mostly Cloudy
1:35 PM 82.4 °F 85.4 °F 68.0 °F 62% 30.14 in 10.0 mi South 4.6 mph - N/A Thunderstorm Thunderstorm
1:55 PM 84.2 °F 87.3 °F 68.0 °F 58% 30.13 in 10.0 mi South 6.9 mph - N/A   Scattered Clouds
2:15 PM 86.0 °F 89.4 °F 68.0 °F 55% 30.13 in 10.0 mi SSW 8.1 mph - N/A   Scattered Clouds
2:35 PM 84.2 °F 86.6 °F 66.2 °F 55% 30.12 in 10.0 mi SSW 8.1 mph - N/A   Mostly Cloudy
2:55 PM 82.4 °F 83.9 °F 64.4 °F 54% 30.11 in 10.0 mi SW 10.4 mph - N/A   Overcast
3:15 PM 80.6 °F 82.7 °F 66.2 °F 61% 30.10 in 10.0 mi North 8.1 mph - N/A   Overcast
3:35 PM 78.8 °F - 68.0 °F 69% 30.10 in 10.0 mi North 5.8 mph - N/A   Overcast
3:55 PM 73.4 °F - 69.8 °F 88% 30.08 in 10.0 mi NNE 12.7 mph - N/A Rain Light Rain
4:15 PM 73.4 °F - 68.0 °F 83% 30.11 in 10.0 mi East 5.8 mph - N/A Rain , Thunderstorm Light Thunderstorms and Rain
4:35 PM 71.6 °F - 68.0 °F 88% 30.10 in 10.0 mi SE 4.6 mph - N/A   Mostly Cloudy
4:55 PM 71.6 °F - 68.0 °F 88% 30.11 in 10.0 mi Calm Calm - N/A   Mostly Cloudy
5:15 PM 71.6 °F - 69.8 °F 94% 30.10 in 10.0 mi East 3.5 mph - N/A   Scattered Clouds
5:35 PM 71.6 °F - 69.8 °F 94% 30.12 in 10.0 mi East 5.8 mph - N/A   Clear
5:55 PM 73.4 °F - 69.8 °F 88% 30.10 in 10.0 mi East 4.6 mph - N/A   Scattered Clouds
6:15 PM 75.2 °F - 68.0 °F 78% 30.10 in 10.0 mi East 3.5 mph - N/A   Clear
6:35 PM 77.0 °F - 68.0 °F 74% 30.08 in 10.0 mi SSE 3.5 mph - N/A   Clear
6:55 PM 78.8 °F - 68.0 °F 69% 30.07 in 10.0 mi Calm Calm - N/A   Clear
7:15 PM 77.0 °F - 69.8 °F 78% 30.09 in 10.0 mi SE 8.1 mph - N/A   Clear
7:35 PM 75.2 °F - 69.8 °F 83% 30.09 in 10.0 mi SE 5.8 mph - N/A   Clear
7:55 PM 73.4 °F - 68.0 °F 83% 30.09 in 10.0 mi ESE 5.8 mph - N/A   Clear
8:15 PM 71.6 °F - 68.0 °F 88% 30.08 in 10.0 mi SE 5.8 mph - N/A   Clear
8:35 PM 69.8 °F - 68.0 °F 94% 30.08 in 10.0 mi SSE 4.6 mph - N/A   Scattered Clouds
8:55 PM 69.8 °F - 68.0 °F 94% 30.08 in 10.0 mi SSE 5.8 mph - N/A   Scattered Clouds
9:15 PM 69.8 °F - 68.0 °F 94% 30.07 in 10.0 mi SE 5.8 mph - N/A   Clear
9:35 PM 68.0 °F - 66.2 °F 94% 30.08 in 10.0 mi South 5.8 mph - N/A   Clear
9:55 PM 68.0 °F - 66.2 °F 94% 30.09 in 10.0 mi Calm Calm - N/A   Clear
10:15 PM 68.0 °F - 64.4 °F 88% 30.10 in 10.0 mi East 4.6 mph - N/A   Clear
10:35 PM 64.4 °F - 64.4 °F 100% 30.10 in 10.0 mi Calm Calm - N/A   Clear
10:55 PM 64.4 °F - 64.4 °F 100% 30.12 in 10.0 mi Calm Calm - N/A   Clear
11:15 PM 64.4 °F - 64.4 °F 100% 30.12 in 10.0 mi SE 3.5 mph - N/A   Clear
11:35 PM 64.4 °F - 64.4 °F 100% 30.12 in 10.0 mi South 3.5 mph - N/A   Clear
11:55 PM 64.4 °F - 64.4 °F 100% 30.12 in 10.0 mi SE 3.5 mph - N/A   Scattered Clouds